星链-36664(STARLINK-36664)

导读 | 豆包AI

STARLINK-36664是美国SpaceX星链星座的卫星,于2026年2月20日发射升空。星链项目旨在构建全球卫星互联网星座,为全球提供覆盖偏远地区的宽带网络服务。该卫星加入已经庞大的星链组网,进一步扩充星座规模,提升全球网络覆盖密度与服务能力,延续SpaceX推进星链部署的节奏。

基本信息
目录编号:
67866
目录名称:
STARLINK-36780
国际标识:
2026-034S
轨道中心:
EARTH
卫星名称:
星链-36664
卫星全名:
星链-36664(STARLINK-36664)
卫星状态:
在轨 (已飞行94 天)
发射日期:
2026-02-20 UTC
国别 :
美国 (US)
星等 :
--
轨道信息
数据来源 国际轨道数据
星历时间: 2026-05-24T12:25:38+0800
1天前
查看轨道信息
半长轴: 6853.418km
偏心率: 0.0002803
轨道倾角: 53.156°
近地点辐角 74.514°
升交点赤经 213.622°
平近点角 285.617°
近地点: 473.359km
远地点: 477.203km
周期: 94.107分钟
每日圈数: 15.301782
详细信息
固有亮度:
5
最大亮度:
2.5
卫星平台:
Starlink V1.0
覆盖范围:
全球
运营商:
太空探索技术公司
运营商所在国:
美国
制造商(研发单位):
太空探索技术公司
制造商所在国:
美国
使用方式:
暂无
卫星简介
Starlink 计划是 SpaceX 推出的全球卫星互联网项目,通过发射低轨道卫星,为全球尤其是偏远地区提供高速、低延迟的互联网服务。自 2019 年起,Starlink 已部署数千颗卫星,旨在缩小全球数字鸿沟,推动互联网普及。该项目还为军事、航空等行业提供通信支持,带来广泛经济效益。
2D轨道图
3D轨道图
轨道高度分析图
轨道倾角分析图
轨道综合分析图
查看轨道综合分析图